Location: Newark
(25.4800°N, 85.7200°E)
Time: 23:40:33
(UTC+00:00)

Transit 4A - Pass Details

Date: 25 August 2019
Orbit: 865 x 980 km, 66.8° (Epoch: 21 September)

Event Time Altitude Azimuth Distance (km) Brightness Sun altitude
Rises 22:15:21 0° 321° (NW) 3,566 10.8 -22.2°
Enters shadow 22:17:40 - 312° (NW) 2,787 10.2 -21.7°
Reaches altitude 10° 22:18:16 10° 309° (NW) 2,601 - -21.6°
Maximum altitude 22:23:11 27° 254° (WSW) 1,658 - -20.6°
Drops below altitude 10° 22:28:00 10° 198° (SSW) 2,533 - -19.5°
Sets 22:30:49 0° 186° (S) 3,454 - -19.0°
